Torna al catalogo

STARLINK-36230

AttivoComunicazioniVLEO
NORAD 67075·PAYLOAD·🇺🇸 United States

Lanciato Dec 14, 2025 da Vandenberg Space Force Base

Loading…

Prossimi Passaggi (prossime 24 ore)

TLE

AggiornatoSource: CelesTrak SupGP

Epoca: Sep 15, 2026, 03:57 UTC

1 67075C 25298A   26258.16506944 -.00048110  00000+0 -40312-2 0  2584
2 67075  70.0003 256.7969 0003807 269.6656 213.1871 14.98358843    16

Traccia STARLINK-36230 in tempo reale con AllMySat

Download on the App Store